Regional Weather Roundup
Issued by NWS

Home | Current Version | Previous Version | Text Only | Print | Product List | Glossary On
Versions: 1 2 3 4 5 6 7 8 9 10 11 12 13 14 15 16 17 18 19 20 21 22 23 24 25 26 27 28 29 30 31 32 33 34 35 36 37 38 39 40 41 42 43 44 45 46 47 48 49 50
302
ASUS45 KBOU 281807
RWRCO

WEATHER ROUNDUP FOR COLORADO
NATIONAL WEATHER SERVICE DENVER/BOULDER CO
1200 PM MDT THU APR 28 2016

NOTE: "FAIR" INDICATES FEW OR NO CLOUDS BELOW 12000 FEET WITH NO
SIGNIFICANT WEATHER AND/OR OBSTRUCTIONS TO VISIBILITY.

COZ001>005-013-030-031-281900-
...NORTHWEST COLORADO...

CITY           SKY/WX    TMP DP  RH WIND       PRES   REMARKS
CRAIG          CLOUDY    36  34  92 E3        29.81R
HAYDEN         CLOUDY    36  32  87 SE6       29.80R
MEEKER         PTSUNNY   46  38  73 S7        29.77S
MOUNT WERNER   NOT AVBL
STEAMBOAT SPGS CLOUDY    36  33  90 W6        29.82R
WALDEN         CLOUDY    34  30  86 W5        29.84S WCI  30
$$

COZ006>008-011-281900-
...WEST CENTRAL VALLEYS...

CITY           SKY/WX    TMP DP  RH WIND       PRES   REMARKS
GRAND JUNCTION PTSUNNY   49  41  74 CALM      29.73F
MONTROSE       FAIR      55  40  56 CALM      29.73F
EAGLE          CLOUDY    41  37  87 E7        29.83R
RIFLE          FAIR      48  39  71 NW3       29.78F
DELTA          NOT AVBL
NUCLA          NOT AVBL
$$

COZ017>023-064>068-281900-
...SOUTHWEST COLORADO...

CITY           SKY/WX    TMP DP  RH WIND       PRES   REMARKS
DURANGO        FAIR      56  19  23 SW21G30   29.79F
CORTEZ         PTSUNNY   60  22  23 SW14G25   29.75S
PAGOSA SPRINGS PTSUNNY   52  19  27 SW14G30   29.84S THUNDER
TELLURIDE      PTSUNNY   40  26  55 S10G23    29.84S
WOLF CREEK PAS NOT AVBL
$$

COZ009-010-012-014-032>034-037-058>063-281900-
...CENTRAL COLORADO...

CITY           SKY/WX    TMP DP  RH WIND       PRES   REMARKS
ASPEN          PTSUNNY   38  35  89 NW10      29.80F
BUENA VISTA    LGT SNOW  34  30  86 SE6       29.90F WCI  29
COPPER MTN     NOT AVBL
BERTHOUD PASS  CLOUDY    18   9  68 SE29G40   29.90S WCI  -2
COTTONWOOD PAS SNOW      34  32  93 CALM      29.91S VSB 1/2
GUNNISON       PTSUNNY   52  21  30 SW14G22   29.78F
KREMMLING      PTSUNNY   46  30  53 W5        29.79F
LEADVILLE      LGT SNOW  30  28  92 S22G31    29.84S FOG     WCI  17
MONARCH PASS   FOG       28  25  86 SE15G23   30.03S VSB<1/4 WCI  17
SALIDA         CLOUDY    37  33  87 SE10G17   29.98S
SUNLIGHT       PTSUNNY   32  32 100 CALM      29.89S
WILKERSON PASS SNOW     N/A N/A N/A S5        29.97R VSB 1/2
$$

COZ069>075-281900-
...SAN LUIS VALLEY/SANGRE DE CRISTO MOUNTAINS...

CITY           SKY/WX    TMP DP  RH WIND       PRES   REMARKS
ALAMOSA        PTSUNNY   54  22  28 SW20G28   29.83F
LA VETA PASS   SNOW      28  27  93 MISG      29.95S VSB<1/4
SAGUACHE       PTSUNNY   50  27  40 SW7G14    29.83F
$$

COZ035-036-038>040-281900-
...NORTHERN COLORADO FRONT RANGE...

CITY           SKY/WX    TMP DP  RH WIND       PRES   REMARKS
DENVER INTL AP CLOUDY    36  30  79 E13       29.97S
DMNS CITY PARK   N/A     37  31  80 MISG      29.97S
AURORA         CLOUDY    36  32  87 E14       29.97F
FRONT RANGE AP CLOUDY    36  32  87 E12G22    29.98F
ERIE MUNI ARPT CLOUDY    38  32  78 E6        29.98S
BOULDER MUN AP CLOUDY    37  32  81 E5        29.97F
CENTENNIAL     CLOUDY    37  31  78 SE12      29.95F
BROOMFIELD     CLOUDY    37  32  81 E5        29.98S
FORT COLLINS   CLOUDY    37  34  87 SE7       30.00S
LONGMONT       CLOUDY    40  33  76 E7        30.01R HAZE
$$

COZ041-046-047-076>085-087-088-281900-
...PIKES PEAK/PALMER DIVIDE AND SOUTHERN FOOTHILLS...

CITY           SKY/WX    TMP DP  RH WIND       PRES   REMARKS
COLO. SPRINGS  FLURRIES  35  31  85 SE12      29.98F WCI  27
A. F. ACADEMY  CLOUDY    34  30  86 SE16      29.94F WCI  23
SCHRIEVER AFB  NOT AVBL
ELLICOTT       NOT AVBL
FALCON         CLOUDY    32  30  94 S7        29.98S WCI  26
FORT CARSON    PTSUNNY   36  32  86 S5        29.97F
LIMON          CLOUDY    36  32  85 E7        29.99S
MONUMENT HILL  CLOUDY    32  28  86 SE16      29.96S WCI  21
TRINIDAD       PTSUNNY   50  32  50 NE14G22   29.92F
$$

COZ042>045-048>051-090-091-281900-
...NORTHEAST COLORADO...

CITY           SKY/WX    TMP DP  RH WIND       PRES   REMARKS
GREELEY ARPT   PTSUNNY   37  34  87 SE3       30.01S
AKRON          LGT SNOW  34  32  92 NE5       30.00F VSB 1   WCI  30
BURLINGTON     CLOUDY    43  30  60 N10       30.01S
WRAY           NOT AVBL
STERLING       CLOUDY    43  32  65 E9        30.00S
HOLYOKE        NOT AVBL
FORT MORGAN    LGT SNOW  35  33  92 SE7       30.02S WCI  29
$$

COZ086-089-092>099-281900-
...SOUTHEAST COLORADO...

CITY           SKY/WX    TMP DP  RH WIND       PRES   REMARKS
PUEBLO         CLOUDY    45  29  53 E6        29.97F
LA JUNTA       CLOUDY    48  29  47 NE12      29.98F
LAMAR          CLOUDY    49  31  49 NE10      29.98F
SPRINGFIELD      N/A     46  30  53 E9        29.99R
$$




USA.gov is the U.S. government's official web portal to all federal, state and local government web resources and services.